Volver al catálogo

BISONSAT

ActivoCienciaLEO
NORAD 40968·PAYLOAD·🇺🇸 United States

Lanzado Oct 8, 2015 desde Vandenberg Space Force Base

Loading…

Próximos Pases (próximas 24 horas)

TLE

ActualizadoSource: Space-Track

Época: Sep 14, 2026, 05:48 UTC

1 40968U 15058E   26257.24176433  .00002006  00000-0  16367-3 0  9992
2 40968  64.7764 339.8824 0126977  19.4062 341.1822 14.96496782129980

Sigue BISONSAT en tiempo real con AllMySat

Download on the App Store